Weather History for YBCG - February, 2013

Change the Weather History Date:

Thursday, February 28, 2013

  Actual Average (YBBN) Record (YBBN)
Temperature  
Mean Temperature 76 °F -  
Max Temperature 81 °F 81 °F 86 °F (2001)
Min Temperature 71 °F 67 °F 64 °F (2009)
Cooling Degree Days 11    
Growing Degree Days 26 (Base 50)    
Moisture  
Dew Point 66 °F    
Average Humidity 68    
Maximum Humidity 88    
Minimum Humidity 49    
Precipitation  
Precipitation 0.00 in - - ()
Sea Level Pressure  
Sea Level Pressure 29.88 in    
Wind  
Wind Speed 9 mph ()    
Max Wind Speed 13 mph    
Max Gust Speed -    
Visibility 6.2 miles    
Events      
Averages and records for this station are not official NWS values.
T = Trace of Precipitation, MM = Missing Value Source: Averaged Metar Reports

Daily Weather History Graph

Daily Weather History Graph

Search for Another Location

Airport or City:

Trip Planner

Search our weather history database for the weather conditions in past years. The results will help you decide how hot, cold, wet, or windy it might be!

Date:

Astronomy

Feb. 28, 2013 Rise Set
Actual Time 5:37 AM AEST 6:19 PM AEST
Civil Twilight 5:13 AM AEST 6:43 PM AEST
Nautical Twilight 4:45 AM AEST 7:11 PM AEST
Astronomical Twilight 4:16 AM AEST 7:39 PM AEST
Moon 7:35 PM AEST (2/28) 7:37 AM AEST (2/28)
Length of Visible Light 13h 29m
Length of Day
12h 41m
Waning Gibbous, 94% of the Moon is Illuminated
Feb 28
Waning Gibbous
Mar 5
Last Quarter
Mar 12
New
Mar 20
First Quarter
Mar 27
Full

Hourly Weather History & Observations

Time (AEST) Temp. Heat Index Dew Point Humidity Pressure Visibility Wind Dir Wind Speed Gust Speed Precip Events Conditions
12:00 AM 76 °F - 67 °F 67% 29.95 in - ENE 11.5 mph - -   Overcast
12:00 AM 75.2 °F - 68.0 °F 78% 29.95 in 6.2 mi ENE 11.5 mph - N/A   Overcast
12:30 AM 77.0 °F - 66.2 °F 69% 29.95 in 6.2 mi ENE 12.7 mph - N/A   Overcast
1:00 AM 77.0 °F - 66.2 °F 69% 29.92 in 6.2 mi ENE 11.5 mph - N/A   Overcast
1:30 AM 75.2 °F - 68.0 °F 78% 29.92 in 5.6 mi ENE 10.4 mph - N/A   Overcast
2:00 AM 75.2 °F - 66.2 °F 73% 29.92 in 6.2 mi NE 11.5 mph - N/A   Overcast
2:30 AM 75.2 °F - 66.2 °F 73% 29.89 in 6.2 mi ENE 11.5 mph - N/A   Overcast
3:00 AM 76 °F - 66 °F 64% 29.90 in - NE 10.4 mph - -   Overcast
3:00 AM 75.2 °F - 66.2 °F 73% 29.89 in 6.2 mi NE 10.4 mph - N/A   Overcast
3:30 AM 75.2 °F - 64.4 °F 69% 29.89 in 6.2 mi ENE 10.4 mph - N/A   Overcast
4:00 AM 75.2 °F - 64.4 °F 69% 29.89 in 6.2 mi NE 10.4 mph - N/A   Overcast
4:30 AM 75.2 °F - 64.4 °F 69% 29.89 in 6.2 mi NE 9.2 mph - N/A   Overcast
5:00 AM 75.2 °F - 64.4 °F 69% 29.89 in 6.2 mi ENE 9.2 mph - N/A   Mostly Cloudy
5:30 AM 75.2 °F - 64.4 °F 69% 29.89 in 6.2 mi NE 8.1 mph - N/A   Overcast
6:00 AM 72 °F - 67 °F 78% 29.92 in - NW 3.5 mph - -   Overcast
6:00 AM 71.6 °F - 66.2 °F 83% 29.92 in 6.2 mi NW 3.5 mph - N/A   Overcast
6:30 AM 71.6 °F - 68.0 °F 88% 29.92 in 6.2 mi SW 5.8 mph - N/A   Overcast
7:00 AM 73.4 °F - 68.0 °F 83% 29.92 in 6.2 mi North 4.6 mph - N/A   Overcast
7:30 AM 77.0 °F - 64.4 °F 65% 29.92 in 6.2 mi NE 9.2 mph - N/A   Overcast
8:00 AM 78.8 °F - 62.6 °F 57% 29.92 in 6.2 mi NE 9.2 mph - N/A   Overcast
8:30 AM 78.8 °F - 62.6 °F 57% 29.92 in 6.2 mi NE 9.2 mph - N/A   Mostly Cloudy
9:00 AM 78 °F - 62 °F 49% 29.94 in - NNE 8.1 mph - -   Overcast
9:00 AM 78.8 °F - 62.6 °F 57% 29.92 in 6.2 mi NNE 8.1 mph - N/A   Overcast
9:30 AM 80.6 °F 82.3 °F 64.4 °F 58% 29.92 in 6.2 mi NE 9.2 mph - N/A   Mostly Cloudy
10:00 AM 80.6 °F 81.8 °F 62.6 °F 54% 29.92 in 6.2 mi NNE 9.2 mph - N/A   Scattered Clouds
10:30 AM 80.6 °F 82.3 °F 64.4 °F 58% 29.92 in 6.2 mi NNE 9.2 mph - N/A   Unknown
11:00 AM 78.8 °F - 64.4 °F 61% 29.92 in 6.2 mi ENE 6.9 mph - N/A   Overcast
11:30 AM 78.8 °F - 64.4 °F 61% 29.89 in 6.2 mi NE 8.1 mph - N/A   Overcast
12:00 PM 80 °F - 67 °F 57% 29.90 in - NE 8.1 mph - -   Overcast
12:00 PM 80.6 °F 83.2 °F 68.0 °F 65% 29.89 in 6.2 mi NE 8.1 mph - N/A   Mostly Cloudy
12:30 PM 80.6 °F 82.7 °F 66.2 °F 61% 29.89 in 6.2 mi NNE 11.5 mph - N/A   Scattered Clouds
1:00 PM 80.6 °F 83.2 °F 68.0 °F 65% 29.86 in 6.2 mi NNE 11.5 mph - N/A   Unknown
1:30 PM 80.6 °F 82.7 °F 66.2 °F 61% 29.86 in 6.2 mi NNE 9.2 mph - N/A   Unknown
2:00 PM 80.6 °F 82.7 °F 66.2 °F 61% 29.86 in 6.2 mi North 9.2 mph - N/A   Unknown
2:30 PM 80.6 °F 82.7 °F 66.2 °F 61% 29.83 in 6.2 mi NNE 9.2 mph - N/A   Unknown
3:00 PM 81 °F - 65 °F 49% 29.84 in - NNE 9.2 mph - -  
3:00 PM 80.6 °F 82.3 °F 64.4 °F 58% 29.83 in 6.2 mi NNE 9.2 mph - N/A   Unknown
3:30 PM 80.6 °F 82.3 °F 64.4 °F 58% 29.83 in 6.2 mi North 9.2 mph - N/A   Unknown
4:00 PM 78.8 °F - 66.2 °F 65% 29.83 in 6.2 mi North 9.2 mph - N/A   Unknown
4:30 PM 78.8 °F - 66.2 °F 65% 29.83 in 6.2 mi NNE 10.4 mph - N/A   Unknown
5:00 PM 78.8 °F - 66.2 °F 65% 29.83 in 6.2 mi NNE 8.1 mph - N/A   Mostly Cloudy
5:30 PM 78.8 °F - 66.2 °F 65% 29.83 in 6.2 mi NNE 8.1 mph - N/A   Overcast
6:00 PM 78 °F - 66 °F 59% 29.83 in - NNE 8.1 mph - -   Overcast
6:00 PM 77.0 °F - 66.2 °F 69% 29.83 in 6.2 mi NNE 8.1 mph - N/A   Overcast
6:30 PM 77.0 °F - 66.2 °F 69% 29.83 in 6.2 mi North 8.1 mph - N/A   Overcast
7:00 PM 77.0 °F - 68.0 °F 74% 29.83 in 6.2 mi North 11.5 mph - N/A   Scattered Clouds
7:30 PM 77.0 °F - 68.0 °F 74% 29.83 in 6.2 mi North 11.5 mph - N/A   Unknown
8:00 PM 77.0 °F - 68.0 °F 74% 29.86 in 6.2 mi North 10.4 mph - N/A   Scattered Clouds
8:30 PM 77.0 °F - 68.0 °F 74% 29.86 in 6.2 mi North 10.4 mph - N/A   Overcast
9:00 PM 76 °F - 68 °F 70% 29.86 in - North 9.2 mph - -  
9:00 PM 77.0 °F - 68.0 °F 74% 29.86 in 6.2 mi North 9.2 mph - N/A   Overcast
9:30 PM 77.0 °F - 68.0 °F 74% 29.86 in 6.2 mi North 11.5 mph - N/A   Overcast
10:00 PM 77.0 °F - 68.0 °F 74% 29.86 in 6.2 mi North 10.4 mph - N/A   Scattered Clouds
10:30 PM 75.2 °F - 68.0 °F 78% 29.86 in 6.2 mi North 11.5 mph - N/A   Unknown
11:00 PM 73.4 °F - 68.0 °F 83% 29.86 in 6.2 mi NW 6.9 mph - N/A   Scattered Clouds
11:30 PM 73.4 °F - 68.0 °F 83% 29.83 in 6.2 mi NW 4.6 mph - N/A   Scattered Clouds